Wind_Speed
33 34 34 34 34 34 34 34 33 33 33 33 33 33 33 34 34 35 35 35 35 36 36 37 37 37 38 38 38 38 38 38 38 37 37 37 36 36 36 35 35 36 36 36 36 36 35 35 35 35 35 35 35 35 35 35 36 36 36 36 36 36 36 36 36 36 35 35 35 34 34 33 33 33 33 32 32 32 31 31 31 31 31 31 32 32
34 34 35 35 35 35 35 35 34 34 34 34 34 34 34 35 35 35 35 36 36 36 37 37 37 38 38 38 38 38 38 38 38 38 37 37 36 36 36 36 36 36 36 36 36 36 36 36 36 35 35 35 35 35 35 36 36 36 36 36 36 36 36 36 36 36 36 35 35 34 34 34 33 33 33 32 32 32 32 31 31 31 32 32 32 32
35 35 35 35 35 35 35 35 35 35 35 35 34 34 35 35 35 36 36 36 36 37 37 37 38 38 38 38 38 38 38 38 38 38 37 37 37 36 36 36 36 36 36 36 36 36 36 36 36 36 36 36 35 35 36 36 36 36 36 36 36 37 37 37 37 36 36 36 35 35 34 34 34 33 33 33 32 32 32 32 32 32 32 32 32 33
35 36 36 36 36 36 36 35 35 35 35 35 35 35 35 35 36 36 36 36 37 37 38 38 38 38 39 39 39 38 38 38 38 38 37 37 37 37 36 36 36 36 36 36 36 36 36 36 36 36 36 36 36 36 36 36 36 36 36 37 37 37 37 37 37 37 36 36 36 35 35 34 34 34 33 33 33 32 32 32 32 32 32 33 33 33
36 36 36 36 36 36 36 36 35 35 35 35 35 35 36 36 36 37 37 37 37 38 38 38 39 39 39 39 39 38 38 38 38 38 37 37 37 37 37 37 37 37 37 37 37 36 36 36 36 36 36 36 36 36 36 36 36 36 37 37 37 37 37 37 37 36 36 36 36 35 35 35 34 34 34 33 33 33 33 33 33 33 33 33 33 34
36 36 37 36 36 36 36 36 35 35 35 35 35 36 36 37 37 37 38 38 38 38 39 39 39 39 39 39 39 38 38 38 38 38 37 37 37 37 37 37 37 37 37 37 37 37 37 37 37 37 37 36 36 36 36 36 37 37 37 37 37 37 36 36 36 36 36 36 35 35 35 35 35 34 34 34 34 33 33 33 33 33 34 34 34 34
36 37 37 37 37 37 36 36 35 35 35 35 36 36 37 37 38 38 38 39 39 39 39 39 39 39 39 39 39 38 38 38 38 38 38 37 37 37 37 37 37 37 37 37 37 37 37 37 37 37 37 37 37 37 37 37 37 36 36 36 36 36 36 35 35 35 35 35 35 35 35 35 35 35 35 34 34 34 34 34 34 34 34 34 35 35
36 37 37 37 37 37 36 36 36 35 35 36 36 37 37 38 38 39 39 39 40 40 39 39 39 39 39 39 39 38 38 38 38 38 38 38 37 37 37 37 37 37 37 37 37 37 37 37 37 37 37 37 37 37 37 37 36 36 36 35 35 35 35 34 34 34 34 34 35 35 35 35 35 35 35 35 35 35 34 34 35 35 35 35 35 35
37 37 37 37 37 37 36 36 36 36 36 37 37 38 38 38 39 40 40 40 40 40 40 40 39 39 39 39 38 38 38 38 38 38 38 38 38 38 37 37 38 38 38 37 37 38 38 38 38 38 38 38 37 37 37 36 36 35 35 34 34 34 34 34 34 34 34 34 34 34 35 35 35 35 35 35 35 35 35 35 35 35 35 36 36 36
37 37 37 37 37 37 36 36 36 36 36 37 38 39 39 39 40 40 41 41 41 41 41 40 40 39 39 39 38 38 38 38 38 38 38 38 38 38 38 38 38 38 38 38 38 38 38 38 38 38 38 38 37 37 36 35 35 34 34 33 33 33 33 33 33 34 34 34 34 34 35 35 35 35 35 35 35 35 35 35 36 36 36 36 37 37
37 37 37 37 37 37 37 37 37 37 37 38 39 40 40 40 40 41 41 41 42 41 41 41 40 39 39 38 38 38 38 38 38 38 38 38 38 38 38 38 38 38 38 38 38 38 39 39 39 39 38 38 37 36 36 35 34 34 33 33 33 33 33 33 33 34 34 34 34 35 35 35 35 35 35 36 36 36 36 36 36 36 37 37 37 37
38 38 38 38 37 37 37 37 37 38 38 39 40 40 41 41 41 41 41 42 42 42 41 41 40 40 39 38 38 38 37 37 37 38 38 38 38 38 38 38 38 38 38 39 39 39 39 39 39 39 38 37 37 36 35 34 34 33 33 33 33 33 33 33 34 34 34 34 35 35 35 35 36 36 36 36 36 36 36 36 36 37 37 37 37 37
38 38 38 38 38 38 38 38 38 39 40 40 40 40 41 41 41 42 42 43 43 42 41 40 40 40 39 38 38 38 37 37 37 38 38 38 38 38 38 39 39 39 39 39 39 39 40 40 39 39 38 37 36 35 34 34 33 33 33 33 33 33 33 33 34 34 34 35 35 35 35 35 36 36 36 36 36 36 36 36 36 37 37 37 37 37
38 38 38 38 38 38 38 39 39 40 40 40 41 41 41 42 42 42 43 43 43 42 41 40 40 40 39 38 38 38 38 38 38 38 38 38 38 38 38 39 39 39 39 39 39 40 40 40 39 38 37 36 35 34 34 33 33 33 33 33 33 33 33 33 34 34 34 34 34 35 35 35 35 35 35 35 36 36 36 36 36 37 37 37 37 37
39 39 39 39 39 39 39 39 40 40 41 41 41 42 42 42 42 42 42 43 42 42 41 40 40 40 39 38 38 38 38 38 38 38 38 38 38 38 38 39 39 39 39 39 40 40 40 39 39 38 36 35 34 34 33 33 33 33 33 33 33 33 33 33 33 33 34 34 34 34 34 34 34 34 35 35 35 35 35 36 36 36 36 36 37 37
39 39 39 40 40 40 40 40 41 41 41 42 42 42 42 42 42 42 42 42 42 41 40 40 40 39 39 38 38 38 38 39 39 39 38 38 39 38 38 38 39 39 39 39 39 40 40 39 38 37 36 35 34 34 34 33 33 33 33 33 33 33 33 33 33 33 33 33 33 33 33 33 33 33 34 34 34 34 35 35 35 35 36 36 36 36
40 40 40 41 41 41 41 41 42 42 42 42 42 42 42 42 42 42 42 42 41 41 40 40 39 39 39 39 38 38 38 39 39 39 39 39 39 38 38 38 39 39 39 39 39 39 39 38 37 36 35 35 34 34 34 34 34 33 33 33 33 33 32 32 32 32 32 32 32 32 32 32 32 32 33 33 33 33 34 34 34 35 35 35 35 35
41 41 41 41 42 42 42 42 42 42 42 42 42 42 41 42 42 42 41 41 41 40 40 39 39 39 39 39 39 38 38 38 39 40 39 39 39 39 38 38 39 39 39 39 39 38 38 37 37 36 35 35 34 34 34 34 34 33 33 33 32 32 32 32 32 32 32 32 32 31 32 32 32 32 32 32 33 33 33 33 34 34 34 35 35 35
42 42 41 42 42 42 42 42 42 42 42 42 41 41 41 42 42 41 41 41 40 39 39 39 39 39 39 40 40 39 38 38 39 40 39 39 39 39 39 38 39 39 39 38 38 38 37 37 36 35 35 35 34 34 34 34 34 33 33 32 32 32 32 32 31 31 31 31 31 31 31 31 31 32 32 32 32 32 33 33 33 34 34 34 34 35
42 41 41 41 42 42 42 42 41 41 41 41 41 41 41 41 41 41 40 40 39 39 39 39 39 39 39 40 40 39 38 38 39 39 39 39 40 39 39 38 38 38 38 38 37 37 36 36 35 35 35 35 35 34 34 34 34 33 33 32 32 32 31 31 31 31 31 31 31 31 31 31 31 31 32 32 32 33 33 33 33 34 34 34 34 35
41 41 41 41 41 41 42 41 41 40 41 41 41 41 41 41 41 40 40 39 39 39 39 39 39 39 39 40 40 40 39 38 38 39 39 39 39 40 39 38 38 37 37 37 37 36 36 36 35 35 34 34 34 34 34 34 33 33 33 32 32 31 31 31 31 30 30 31 31 31 31 31 32 32 32 32 33 33 33 34 34 34 35 35 35 36
41 41 40 40 40 41 41 41 40 40 40 40 41 41 41 40 40 40 40 39 39 39 39 39 39 39 39 39 40 40 39 38 39 39 39 39 39 39 39 38 37 36 36 36 36 36 35 35 35 34 34 34 34 34 34 34 33 33 32 32 31 31 31 30 30 30 30 31 31 31 31 32 32 32 33 33 34 34 35 35 35 36 36 37 37 37
40 40 40 40 40 40 40 40 40 40 40 40 40 40 40 40 40 40 40 40 39 39 39 39 39 39 39 40 40 40 39 39 39 39 39 39 39 39 38 37 36 35 35 35 35 35 35 34 34 34 34 34 34 34 34 34 33 33 32 32 31 31 30 30 30 31 31 31 31 32 32 33 33 34 34 35 35 36 37 37 37 38 38 38 39 39
40 40 40 40 40 39 39 39 39 39 40 40 40 40 40 40 40 40 40 40 39 39 39 39 39 39 39 39 40 40 39 39 39 39 39 38 38 38 37 36 35 34 34 34 34 34 34 34 34 34 34 34 34 34 34 33 33 32 32 31 31 30 30 30 31 31 32 32 32 33 33 34 34 35 36 37 37 38 38 39 39 40 40 40 40 40
40 40 40 40 39 39 39 39 39 39 39 39 39 39 39 40 40 40 40 40 39 39 39 39 39 39 39 39 39 39 39 39 39 39 38 38 38 37 36 35 34 34 34 34 34 34 33 33 33 33 33 33 34 34 33 33 32 32 31 31 31 31 31 31 32 32 33 33 34 34 35 36 36 37 38 38 39 40 40 40 41 41 41 41 41 41
40 40 40 39 39 38 38 39 39 39 39 39 39 39 39 40 40 40 40 40 40 40 40 40 39 40 40 40 39 39 39 39 39 38 38 37 37 36 35 34 34 33 33 33 33 33 33 33 33 33 33 33 33 33 33 32 32 31 31 31 31 31 31 32 33 33 34 35 35 36 37 37 38 39 39 40 40 41 41 41 41 41 41 41 41 41
39 39 39 38 38 38 38 38 39 39 39 39 39 39 40 40 40 40 40 40 40 40 40 40 40 40 40 40 39 39 39 39 38 38 38 37 36 36 35 34 33 33 33 33 33 32 32 32 32 32 32 33 32 32 32 31 31 31 31 31 31 32 32 33 34 35 36 36 37 38 38 39 39 40 40 41 41 41 41 41 42 42 42 42 41 41
38 38 37 37 37 38 38 38 39 39 39 39 40 40 40 40 40 40 40 40 40 40 40 40 40 40 40 40 40 39 39 39 38 38 37 36 36 35 34 34 33 33 33 33 33 32 32 32 32 32 32 32 31 31 31 31 30 31 31 31 32 33 34 35 36 36 37 38 39 39 40 40 41 41 41 41 42 42 42 42 42 42 42 42 42 42
37 37 37 37 38 38 39 39 40 40 40 40 40 41 40 40 40 40 40 40 40 40 40 40 40 40 40 40 40 40 39 38 38 37 36 36 35 35 34 34 34 33 33 33 33 32 32 32 32 32 31 31 30 30 30 30 30 31 31 32 33 34 35 36 37 38 39 40 40 41 41 41 42 42 42 42 42 42 42 42 42 42 42 42 42 43
37 37 37 38 38 39 40 41 41 41 41 41 42 41 41 40 40 40 40 40 40 40 40 40 40 40 40 40 40 39 39 38 37 36 35 35 34 34 34 34 34 34 33 33 33 32 32 32 32 31 31 30 30 29 30 30 30 31 32 33 34 35 36 37 39 39 40 41 41 42 42 42 42 42 42 42 42 42 42 42 42 43 43 43 43 43
37 37 38 39 40 41 41 42 42 42 42 42 42 42 41 41 40 40 40 40 40 40 40 40 40 39 39 39 39 39 39 38 37 36 34 34 34 35 34 34 34 34 33 32 32 32 32 32 31 31 30 30 29 29 29 30 31 32 33 34 35 36 37 38 39 40 41 41 41 42 42 42 42 42 42 42 42 42 42 43 43 44 44 44 44 44
38 38 39 40 41 42 42 43 43 43 43 43 43 42 41 40 40 40 40 40 40 40 40 40 40 39 39 39 38 38 38 38 36 35 34 34 34 35 34 34 34 34 33 32 32 32 32 31 31 30 30 30 30 30 30 31 32 33 34 35 36 37 38 38 39 40 40 41 41 41 41 41 42 42 42 42 42 43 43 43 44 44 45 45 45 45
39 40 41 42 42 43 43 43 44 43 43 43 43 42 41 41 40 40 40 40 40 40 40 40 39 39 39 38 38 38 37 37 36 35 34 34 35 35 35 34 34 34 33 32 32 31 31 31 31 30 30 30 31 31 32 32 33 34 35 36 37 37 38 39 39 39 40 40 40 41 41 41 41 42 42 42 43 43 43 44 44 45 45 46 46 46
40 41 42 43 44 44 44 44 44 44 43 43 43 42 42 41 41 41 40 40 40 40 40 39 39 39 38 38 37 37 36 36 35 34 34 34 35 35 35 34 33 33 32 32 31 31 31 31 31 31 31 32 32 32 33 34 35 35 36 37 37 38 39 39 39 39 40 40 40 40 40 41 41 41 42 42 43 43 44 44 45 45 46 46 46 47
42 43 44 44 45 45 45 45 44 44 43 43 43 42 42 42 42 41 41 40 40 40 39 39 39 38 38 37 36 36 35 35 35 35 35 35 35 35 34 34 33 32 32 32 31 31 31 31 31 31 32 33 33 34 34 35 36 37 37 37 38 38 39 39 39 39 39 39 39 40 40 40 41 41 42 42 42 43 43 44 45 45 46 46 47 47
44 45 45 45 45 45 45 45 44 43 43 43 42 42 42 42 42 42 41 40 40 39 39 39 38 38 37 36 36 35 35 35 35 35 35 35 35 34 34 33 32 32 31 31 31 31 31 32 32 33 33 34 34 35 35 36 37 37 38 38 38 38 38 39 39 39 39 39 39 40 40 41 41 41 42 42 42 43 43 44 44 45 46 46 47 47
46 46 46 46 45 45 45 44 44 43 43 43 42 42 42 42 42 42 41 40 40 39 39 38 38 37 36 36 35 35 35 35 36 36 36 35 35 34 33 33 32 31 31 31 32 32 32 33 33 34 34 35 35 36 37 37 37 38 38 38 38 38 38 38 39 39 39 39 40 40 41 41 41 42 42 42 42 43 43 44 44 44 45 45 46 46
47 47 47 46 45 45 44 44 43 43 42 42 42 41 41 41 42 41 41 40 40 39 38 38 37 36 36 35 35 35 35 35 35 35 35 34 34 33 33 32 32 32 31 32 32 33 33 34 34 35 35 36 37 37 37 37 38 38 38 38 38 38 38 38 39 39 39 39 40 40 41 41 42 42 42 42 43 43 43 43 43 44 44 44 45 45
48 48 47 46 45 44 44 43 42 42 41 41 41 41 41 41 41 41 40 40 39 38 37 37 36 35 35 35 35 35 35 35 35 34 34 33 33 33 32 32 32 32 32 33 33 34 34 35 35 36 37 37 37 38 38 38 37 37 38 38 38 38 38 38 39 39 39 40 40 41 41 41 42 42 42 43 43 43 43 43 43 43 43 43 43 43
48 47 47 45 44 43 42 42 41 41 41 41 41 41 41 41 40 40 40 39 38 37 36 36 36 35 35 35 35 35 35 34 33 33 33 32 32 32 32 32 32 32 33 33 33 34 35 36 36 37 37 38 38 38 37 37 37 37 37 37 37 38 38 38 39 39 40 40 41 41 42 42 42 42 43 43 43 43 42 42 42 42 42 41 41 40
48 47 45 44 43 42 41 41 41 41 41 41 41 41 41 40 40 39 39 38 37 36 36 36 35 35 35 35 35 34 34 33 32 32 32 32 32 32 32 32 32 32 33 34 34 35 36 36 37 38 38 38 38 38 37 36 36 37 37 37 38 38 38 38 39 40 40 41 41 42 42 42 43 43 43 43 43 43 42 41 41 40 40 40 39 38
46 45 44 42 41 40 40 41 41 42 41 41 41 41 40 40 39 38 37 37 36 36 36 35 35 35 35 35 34 33 33 32 31 31 31 31 32 32 32 32 32 33 34 34 35 36 37 37 38 38 38 38 38 37 37 36 36 36 37 37 38 39 39 39 39 40 41 41 42 42 43 43 43 43 43 43 42 42 41 41 40 39 38 37 37 37
45 44 42 41 40 40 41 41 42 41 41 41 41 40 40 39 38 37 37 36 36 36 36 36 36 35 35 34 33 32 31 31 30 30 30 30 31 31 32 32 33 34 34 35 36 37 37 38 38 38 38 38 38 37 36 36 36 36 37 38 39 39 39 39 40 41 41 42 43 43 44 44 44 44 43 43 42 41 40 39 38 37 36 35 35 35
44 43 41 41 40 41 41 41 41 41 40 40 40 40 39 38 37 37 37 36 37 37 37 37 36 35 34 33 31 30 30 30 30 30 30 30 31 32 32 33 34 35 36 36 37 38 38 38 38 38 38 38 37 37 36 36 36 37 37 38 39 39 40 40 41 41 42 43 43 44 44 44 44 44 44 43 42 40 39 37 36 35 34 33 33 33
43 42 42 41 41 41 41 41 40 40 40 40 40 39 38 38 37 37 37 37 37 37 37 36 35 33 32 31 30 29 29 30 29 30 30 31 32 33 34 34 35 36 37 37 38 38 38 38 38 38 38 37 37 37 36 36 37 37 38 38 39 40 40 41 41 42 42 43 44 44 44 45 44 44 43 42 41 39 38 36 35 34 33 32 32 32
43 43 42 41 40 40 40 40 40 40 40 39 39 38 38 37 37 37 37 37 37 36 35 34 32 31 30 29 29 29 29 29 30 30 31 32 33 34 35 36 36 37 38 38 38 38 38 38 38 38 37 37 37 37 36 37 37 37 38 39 39 40 40 41 41 42 43 43 44 44 44 44 44 43 42 41 40 39 37 36 34 33 32 32 32 32
42 42 41 40 39 39 39 40 40 40 39 39 39 38 38 37 37 37 37 37 36 34 33 31 30 29 29 29 29 29 29 30 30 31 32 33 34 35 36 37 38 38 38 38 38 38 38 37 37 37 37 37 37 37 37 37 37 38 38 39 40 40 40 41 42 42 43 43 44 44 44 43 43 42 42 41 39 38 37 35 33 32 31 31 32 33
41 40 40 39 39 39 40 40 40 39 39 39 38 38 37 37 37 36 35 35 33 32 30 30 29 29 29 30 30 30 30 31 31 31 32 33 35 36 37 38 38 38 38 38 38 38 37 37 37 37 37 37 37 37 37 37 38 38 39 39 40 40 40 41 42 42 43 43 43 43 42 42 41 41 40 40 39 37 35 34 32 31 31 31 32 33
40 39 39 39 39 40 40 40 40 39 38 38 38 37 37 36 35 35 33 32 31 30 30 30 30 30 30 30 31 31 31 31 31 32 33 34 35 37 37 38 38 38 38 38 37 37 37 37 37 37 37 36 37 37 37 37 38 38 39 40 40 40 41 41 41 42 42 42 42 42 41 40 40 40 39 39 38 36 34 32 31 31 31 32 33 34
39 39 39 40 40 40 40 39 39 38 37 37 36 36 35 35 34 33 32 31 30 30 30 30 31 31 31 31 31 31 31 31 32 32 33 35 36 37 37 37 37 37 37 37 37 37 37 37 37 37 37 36 36 37 37 38 38 39 39 40 40 40 40 41 41 41 41 41 40 40 40 39 39 39 38 37 36 34 32 31 30 30 31 32 34 35
39 40 40 40 40 39 39 38 37 37 36 36 35 34 34 33 32 31 30 30 30 30 30 31 31 31 31 31 31 31 31 31 32 33 34 35 36 36 37 37 37 36 36 36 37 37 37 37 37 37 37 36 36 37 37 37 38 39 39 40 40 40 40 40 40 40 40 39 39 39 38 38 37 37 36 35 34 33 31 30 30 30 31 33 34 35
Wind_Direction
251 250 250 251 251 253 254 255 257 259 261 263 265 267 270 272 274 276 278 279 281 282 283 284 285 286 287 288 289 289 289 289 289 289 288 288 288 287 288 287 288 288 288 289 289 290 290 290 291 291 291 292 292 292 292 292 292 292 292 292 292 292 292 291 291 291 291 290 289 289 288 287 286 285 283 282 281 279 277 276 274 272 270 268 266 263
251 251 251 251 252 253 254 256 257 259 261 264 266 268 270 273 275 277 278 280 281 282 284 285 286 287 288 288 289 289 289 289 288 288 288 288 287 287 288 288 288 288 289 289 289 290 290 291 291 291 291 292 292 292 292 292 292 292 292 292 292 292 291 291 291 291 290 290 289 288 287 286 285 284 283 281 280 278 276 275 273 271 269 267 265 263
251 251 251 251 252 253 254 256 258 259 262 264 266 269 271 273 276 277 279 281 282 283 284 286 287 287 288 288 288 288 288 288 288 288 287 287 287 287 288 288 288 288 289 289 290 290 290 291 291 291 291 291 291 291 291 291 291 291 291 291 291 291 291 291 290 290 289 289 288 287 286 285 285 284 283 281 279 277 276 274 272 270 268 267 265 263
250 251 251 251 252 253 254 256 258 260 262 265 267 270 272 275 277 278 280 281 282 284 285 286 287 287 288 288 288 288 288 288 287 287 287 287 287 287 288 288 288 289 289 289 290 290 290 290 291 291 291 291 291 291 291 291 291 291 291 291 290 290 290 289 289 289 288 288 287 286 285 285 284 283 282 281 279 277 275 273 272 270 268 266 265 263
251 251 251 252 252 253 255 257 259 261 263 266 268 271 274 276 277 279 280 281 282 284 285 286 286 287 287 287 287 287 287 287 287 286 286 286 287 287 287 288 288 288 289 289 289 290 290 290 290 290 290 291 291 291 290 290 290 290 290 290 289 289 289 288 288 288 287 287 286 285 285 284 283 283 282 281 279 277 275 273 272 270 268 266 265 264
251 251 251 252 253 254 256 258 260 262 265 267 270 272 274 276 278 279 280 281 282 283 284 285 286 286 286 287 286 286 286 286 286 285 285 286 286 286 287 287 288 288 288 289 289 289 290 290 290 290 290 290 290 290 290 290 289 289 289 288 288 288 287 287 287 286 286 286 285 284 284 283 283 282 281 280 279 277 275 273 271 270 268 267 266 264
251 251 252 253 254 255 257 259 261 263 266 269 271 273 275 276 278 279 280 281 282 283 284 285 285 285 285 286 285 285 285 285 284 284 285 285 285 286 286 287 287 288 288 288 289 289 289 289 289 289 289 289 289 289 289 289 288 288 288 287 287 287 286 286 286 286 285 285 284 284 283 282 282 281 281 279 278 277 275 273 271 270 269 267 266 265
252 252 253 254 255 257 258 260 262 264 267 270 272 274 276 277 278 279 280 281 282 283 283 284 284 284 284 284 284 284 284 283 283 284 284 284 285 285 286 287 287 288 288 288 289 289 289 289 289 289 289 289 289 289 288 288 288 287 287 286 286 286 286 285 285 285 285 284 283 283 282 282 281 280 280 279 277 276 274 273 271 270 269 268 267 266
253 254 254 255 256 258 260 261 263 265 268 271 273 275 276 277 279 279 280 281 282 282 283 283 283 283 283 283 283 283 283 283 283 283 284 284 285 285 286 287 287 287 288 288 288 288 289 288 288 288 288 288 288 288 287 287 287 286 286 285 285 285 285 285 284 284 284 283 283 282 281 281 280 279 279 278 277 275 274 272 271 270 269 268 267 267
254 255 255 256 257 259 261 263 264 267 269 271 273 275 277 278 279 280 280 281 281 282 282 282 282 282 282 282 282 282 282 282 283 283 284 284 285 286 286 287 287 287 288 288 288 288 288 288 288 288 288 288 288 287 287 286 286 285 285 285 285 284 284 284 284 284 283 283 282 281 281 280 279 278 278 277 276 274 273 272 270 269 269 268 268 267
255 256 257 258 259 260 261 263 266 268 270 272 274 275 277 278 279 280 280 280 280 281 281 282 282 282 281 281 281 281 281 282 282 283 284 284 285 286 286 287 287 288 288 288 288 288 288 288 288 288 288 287 287 286 286 285 285 284 284 284 284 284 284 284 284 283 283 282 282 281 280 279 279 278 277 276 275 274 273 271 270 269 269 268 268 268
256 256 257 258 260 261 262 264 267 269 271 272 274 275 277 278 278 279 279 279 280 280 281 281 281 281 280 281 281 281 281 281 282 283 284 284 285 286 287 287 287 288 288 288 288 288 288 288 287 287 287 286 286 285 285 285 284 284 284 284 284 284 284 284 284 283 283 282 282 281 280 279 279 278 277 276 275 274 272 271 270 270 269 269 269 269
256 257 258 259 260 262 264 266 268 269 271 273 274 275 276 277 277 278 278 278 279 280 280 280 280 280 280 280 281 281 281 281 282 282 283 284 285 286 286 287 287 288 288 288 288 288 288 287 287 286 286 285 285 285 284 284 284 284 284 284 284 284 284 284 283 283 282 282 281 280 280 279 278 278 277 276 275 274 273 272 271 270 270 270 269 269
257 258 259 260 261 263 265 266 268 270 271 272 273 274 275 276 276 276 277 278 279 279 280 280 280 280 280 280 281 281 282 282 282 282 283 284 284 285 286 286 287 287 288 288 288 287 287 286 286 285 285 285 284 284 284 284 284 284 284 284 284 284 284 283 283 282 282 281 280 280 279 279 278 277 276 276 275 274 273 272 272 271 271 270 270 270
258 258 259 260 262 263 265 266 268 269 270 272 272 273 274 275 275 276 276 277 278 279 279 279 280 280 280 280 281 282 282 282 282 283 283 284 284 285 286 286 287 287 287 287 287 286 286 285 285 284 284 284 283 283 283 283 284 284 284 284 284 284 283 283 282 282 281 281 280 279 279 278 278 277 276 275 275 274 273 273 272 272 271 271 271 271
258 259 260 261 262 263 265 266 267 269 270 271 272 273 273 274 275 275 276 276 277 278 278 279 279 280 280 281 281 281 282 282 283 283 283 284 285 285 286 286 286 286 286 286 286 285 285 284 284 283 283 283 283 283 283 283 284 284 284 284 284 284 283 283 282 282 281 281 280 280 279 278 278 277 276 275 275 274 273 273 272 272 272 272 272 272
258 259 260 261 262 263 264 266 267 268 270 271 272 272 273 273 274 274 275 276 277 278 278 278 279 280 280 281 281 281 282 283 283 284 284 285 285 286 286 286 286 286 285 285 285 284 283 283 282 282 282 282 282 283 283 284 284 284 284 284 284 284 283 283 282 282 281 281 280 280 279 278 278 277 276 276 275 274 274 273 273 273 273 273 273 273
258 259 260 261 263 264 265 266 268 269 270 271 271 272 272 272 273 273 274 275 276 277 277 278 279 279 280 280 280 281 281 282 283 284 285 286 286 286 286 285 285 285 285 284 284 283 282 281 281 281 281 282 282 283 283 284 284 285 285 284 284 284 283 283 282 282 281 281 280 280 279 279 278 278 277 277 276 276 275 275 274 274 274 274 274 274
259 260 261 262 264 265 266 267 268 269 270 270 271 271 271 272 272 273 274 275 276 276 277 277 277 278 279 280 280 281 282 282 283 284 285 286 286 285 285 285 285 284 284 283 282 281 280 280 280 280 281 282 282 283 284 284 285 285 285 284 284 284 283 283 282 282 282 281 281 280 280 280 279 279 278 278 278 277 277 277 276 276 276 277 277 277
260 261 262 264 265 266 267 268 269 269 270 270 270 270 270 272 273 274 274 275 275 275 275 276 276 277 278 279 280 282 282 283 283 284 284 284 284 284 285 284 284 284 283 282 281 280 279 279 279 280 281 282 283 284 284 284 285 285 285 284 284 284 283 283 283 283 282 282 281 281 281 280 280 280 280 280 279 279 279 279 279 279 279 279 280 280
261 262 263 264 266 267 268 268 269 269 269 270 270 270 271 272 273 273 273 273 274 274 274 275 276 277 278 279 280 281 282 283 283 283 283 283 283 284 284 284 283 282 281 280 280 279 278 279 279 280 281 282 283 284 284 284 284 284 284 284 284 284 284 283 283 283 282 282 282 281 281 281 281 281 281 281 281 281 281 281 282 282 282 282 283 283
262 263 264 264 265 266 267 268 269 269 269 269 269 270 271 271 272 272 272 272 272 273 274 274 275 277 278 279 280 281 282 282 282 282 283 283 283 283 283 283 282 280 279 279 278 278 278 278 280 281 282 283 283 284 284 284 284 284 284 284 284 284 284 283 283 283 283 282 282 282 282 282 282 283 283 283 283 283 284 284 284 284 285 285 285 285
262 263 263 264 265 266 267 267 268 268 268 268 269 270 270 271 270 270 271 271 272 273 274 275 276 277 278 278 279 280 281 281 282 282 282 282 282 282 282 281 280 278 277 277 277 277 278 278 280 281 282 283 283 283 283 283 283 283 283 283 283 283 283 283 283 283 283 283 283 283 283 284 284 285 285 285 285 286 286 286 286 286 287 287 287 287
262 263 263 264 264 265 266 266 267 267 267 268 268 269 270 270 270 270 270 271 272 273 274 275 275 276 277 278 279 280 280 281 281 281 281 281 281 280 280 279 278 276 275 275 275 276 277 278 280 281 282 282 282 282 282 282 282 282 283 283 283 283 283 283 283 283 284 284 284 285 285 286 286 286 286 287 287 287 287 287 288 288 288 288 288 287
262 263 264 264 264 265 265 265 266 266 267 267 268 268 268 269 269 270 270 271 272 273 274 274 275 275 276 277 278 279 279 280 280 280 280 280 279 279 278 278 276 274 274 273 274 275 276 278 279 279 280 280 280 280 281 281 281 282 282 283 283 284 284 284 284 284 284 285 285 286 286 287 287 287 287 287 287 288 288 288 288 288 288 288 288 288
263 264 264 264 265 265 265 265 266 266 267 267 267 267 267 268 269 270 270 271 272 273 273 274 274 275 276 276 277 278 278 279 279 279 279 279 278 277 277 276 275 273 273 273 274 274 276 277 278 278 278 278 279 279 280 280 281 282 283 283 283 284 284 284 284 284 285 285 286 286 287 287 287 287 287 287 287 287 288 288 288 288 288 287 287 287
263 264 264 265 265 266 266 266 267 267 267 267 267 267 267 268 269 269 270 271 272 272 273 273 274 275 276 276 277 277 278 278 278 278 278 278 277 276 276 275 274 273 273 273 274 275 276 276 277 277 277 277 278 279 279 280 281 282 282 282 283 283 283 283 284 284 285 286 286 286 286 287 287 287 287 287 287 287 287 287 287 287 287 288 288 288
263 264 264 265 266 267 267 268 268 268 268 268 268 267 267 268 268 269 270 271 271 272 273 273 274 275 276 276 276 277 277 277 277 277 277 277 276 276 275 275 274 273 274 274 275 276 276 276 276 277 277 277 277 278 279 279 280 280 281 281 281 282 282 283 284 284 285 285 286 286 286 286 286 286 287 287 287 287 287 288 288 288 288 288 288 288
262 263 264 266 267 267 268 268 269 269 269 269 268 268 268 268 268 269 270 270 271 272 273 273 274 275 275 276 276 276 277 277 277 277 276 276 275 274 275 274 274 274 275 276 276 276 276 276 276 276 276 276 277 277 277 278 278 279 279 280 281 281 282 283 284 284 285 285 286 286 286 286 286 287 287 287 287 288 288 288 288 288 289 289 289 289
263 264 265 266 267 267 268 269 269 269 269 269 268 268 268 268 268 268 269 270 271 271 272 273 274 274 275 275 276 276 276 276 276 275 275 274 274 273 274 274 274 275 276 276 277 277 276 276 275 275 275 275 275 275 275 276 277 278 279 280 281 282 283 284 285 285 286 286 286 286 286 287 287 287 287 288 288 288 289 289 289 289 290 290 290 290
263 264 265 266 267 267 268 268 269 269 269 268 268 268 268 268 268 268 269 270 270 271 272 272 273 273 274 274 275 275 275 275 275 274 273 272 272 272 273 274 275 275 276 276 276 276 276 275 275 274 274 273 273 273 273 274 276 277 279 280 282 283 284 285 285 286 286 286 287 287 287 287 288 288 288 289 289 289 290 290 290 291 291 291 291 291
264 265 266 267 267 268 268 268 268 267 267 267 267 267 267 266 267 267 268 269 270 270 271 272 272 273 273 274 274 274 274 274 273 273 272 271 271 272 273 274 275 275 275 275 274 274 274 274 274 273 272 272 272 272 273 274 276 278 279 280 281 282 283 284 284 285 285 286 286 287 287 288 288 289 289 290 290 291 291 291 292 292 292 292 292 292
265 266 267 268 268 268 268 267 266 266 265 265 265 265 265 265 265 266 267 268 269 270 270 271 272 272 273 273 273 273 273 273 272 272 271 271 271 272 273 274 274 275 274 274 273 272 273 273 273 273 273 272 273 273 275 276 277 279 280 281 281 281 282 282 283 283 283 284 285 285 286 287 288 289 289 290 291 291 292 292 292 293 293 293 293 293
267 268 269 270 270 269 268 267 265 264 263 263 263 263 263 263 263 264 265 266 267 268 269 270 271 271 272 272 272 271 271 271 271 271 271 271 272 273 274 274 273 273 273 272 272 272 272 272 272 273 274 274 275 276 277 278 279 280 281 281 282 282 282 282 282 282 283 283 284 284 285 286 287 288 289 290 291 291 292 292 293 293 293 293 293 294
269 270 272 272 271 269 267 265 263 262 261 261 261 261 262 262 263 263 264 264 265 266 267 268 269 270 270 270 270 269 269 269 270 270 271 272 272 273 273 272 272 272 272 272 271 271 271 272 272 273 275 276 277 278 279 280 281 281 282 282 283 283 283 283 283 283 283 284 284 285 285 286 287 288 288 289 290 291 292 292 293 293 294 294 294 294
270 272 273 273 271 269 265 263 261 260 259 259 260 260 261 262 262 263 263 263 264 265 266 267 268 268 268 268 268 267 268 268 269 270 271 271 272 272 272 271 271 271 271 271 272 272 272 273 274 275 277 279 280 281 281 282 282 283 283 284 284 284 284 284 284 284 285 285 286 286 286 287 287 288 289 290 291 291 292 293 293 294 294 294 295 295
270 272 273 272 270 267 263 260 259 258 258 259 259 260 261 261 262 263 263 263 264 264 265 266 266 266 266 265 266 266 266 268 269 269 270 270 270 270 270 270 270 270 270 271 273 274 274 276 277 278 280 281 282 283 283 283 284 284 284 284 284 284 284 284 285 285 286 286 287 287 288 288 289 289 290 291 291 292 293 293 294 294 295 295 296 296
270 271 272 270 267 263 260 258 257 257 258 258 259 259 260 260 261 262 263 264 264 264 265 265 265 264 264 263 264 265 266 267 268 269 269 269 268 268 269 269 270 270 271 272 274 275 277 278 280 281 282 283 283 284 284 285 285 285 285 285 285 285 285 285 286 286 287 287 288 288 289 289 290 290 291 292 293 293 294 295 295 296 296 297 297 297
270 271 270 267 264 260 257 256 256 256 257 257 258 258 259 260 261 262 263 264 264 264 264 264 263 263 262 263 263 265 266 267 268 268 267 267 267 267 268 268 269 271 272 273 275 277 279 280 282 283 283 284 284 285 285 285 286 286 286 286 286 286 286 287 287 288 288 288 289 289 290 290 291 292 293 293 294 295 296 296 297 297 297 297 297 297
269 269 267 264 260 257 255 255 255 255 255 256 256 257 258 260 261 262 263 263 263 263 262 262 262 262 262 263 264 265 266 266 266 266 265 265 266 266 267 268 270 271 273 275 277 279 281 282 283 283 284 285 285 285 285 286 286 286 286 286 286 287 287 288 288 289 289 290 290 290 291 291 292 293 294 295 296 296 297 297 297 297 297 297 297 296
267 265 263 260 257 254 253 253 253 253 254 255 256 257 259 260 261 261 262 262 261 261 261 261 261 262 263 263 264 265 265 264 264 263 263 264 265 266 267 269 271 273 276 277 279 280 282 283 284 284 285 285 285 285 286 286 286 286 286 287 287 287 288 288 289 290 290 290 291 292 292 293 294 295 295 296 297 297 298 298 298 298 297 297 296 295
264 261 259 256 253 252 251 251 251 252 253 255 256 257 258 259 260 260 260 260 260 260 260 261 262 262 263 264 264 264 263 262 261 261 262 263 265 267 269 271 273 275 278 280 281 282 283 284 284 285 285 285 285 285 286 286 287 287 287 288 288 288 289 289 290 291 291 292 292 293 293 294 295 295 296 297 297 298 298 298 298 298 298 297 296 294
260 257 255 252 250 249 249 250 251 252 254 255 256 257 258 258 258 258 258 258 258 259 260 261 262 262 263 263 262 262 261 260 260 260 262 264 266 269 271 274 276 278 280 281 282 283 284 284 284 284 285 285 285 286 286 287 287 288 288 289 289 290 291 291 291 292 292 293 294 294 295 295 295 296 297 297 298 299 299 299 299 298 297 296 295 293
256 254 251 249 248 248 249 250 251 253 254 255 256 257 257 257 257 257 257 257 257 258 260 261 262 262 262 261 260 260 260 260 260 261 264 266 269 272 274 276 278 280 281 282 283 283 283 284 284 284 284 285 285 286 287 288 289 289 289 290 291 292 292 293 293 293 293 294 294 295 295 296 296 297 298 299 299 300 300 300 300 299 297 295 294 293
253 251 249 248 248 248 249 250 252 253 254 255 255 255 255 256 256 256 256 256 257 258 260 261 261 261 260 260 259 258 259 261 262 264 266 269 271 274 276 278 280 281 282 282 282 283 283 283 284 284 284 285 286 287 288 289 290 290 291 291 292 292 293 293 294 294 294 295 295 296 296 297 297 298 299 300 300 301 301 301 300 299 297 295 293 292
250 249 248 248 248 249 250 251 252 252 253 253 253 254 254 254 255 255 256 256 257 259 259 260 259 259 259 258 258 259 260 262 265 267 270 272 274 276 278 279 281 281 282 282 282 283 283 284 284 285 285 286 287 288 289 290 291 291 291 292 292 293 294 294 294 295 295 295 296 296 297 298 299 299 300 301 302 302 302 301 300 298 296 294 293 292
248 247 247 248 248 249 250 250 251 251 251 252 252 253 253 254 255 255 256 257 258 258 258 258 258 257 258 258 259 260 262 264 267 270 273 275 277 278 279 280 281 282 282 282 283 283 283 284 284 285 286 287 288 289 290 291 291 292 292 292 293 293 294 294 295 295 295 296 296 297 298 299 300 301 301 302 302 302 302 301 299 298 296 294 293 293
246 246 247 247 248 248 249 249 249 250 250 251 252 252 253 254 255 255 256 257 257 257 256 256 256 256 257 258 260 261 264 266 269 272 274 277 278 279 280 280 281 282 282 282 283 283 284 284 285 286 287 288 289 290 291 291 291 292 292 293 294 294 295 295 295 295 296 296 297 298 299 300 301 301 302 302 302 302 301 300 298 297 295 295 294 294
245 245 245 246 246 247 248 248 249 250 250 251 252 253 253 254 255 255 255 255 255 255 255 255 255 256 257 258 260 262 265 268 270 273 276 277 278 279 279 280 280 281 281 282 283 283 284 285 285 286 288 289 290 291 291 291 292 293 293 294 295 295 296 296 296 296 296 296 297 298 299 300 301 302 302 302 301 300 299 298 297 296 295 295 295 295
243 243 244 245 246 247 248 249 250 250 251 252 252 253 253 253 254 254 254 253 253 253 253 254 255 256 257 259 261 264 267 270 273 275 277 277 278 278 278 279 279 280 281 282 282 283 284 285 285 287 288 289 291 292 292 293 293 294 294 295 296 296 296 296 296 296 296 296 297 298 299 300 301 301 301 300 300 299 298 297 296 296 296 296 296 297
242 243 244 245 246 248 249 250 250 250 251 251 251 251 251 252 252 251 251 251 251 251 252 253 255 256 258 261 264 267 269 272 274 276 277 277 277 277 278 278 279 280 280 281 282 282 283 284 285 287 288 289 291 292 293 294 294 295 295 296 296 296 296 295 295 294 295 295 296 297 299 299 300 300 299 298 298 297 296 296 295 296 297 297 297 298
Height
3067 3068 3068 3068 3069 3069 3069 3070 3070 3071 3071 3071 3071 3071 3071 3071 3071 3071 3071 3070 3070 3070 3069 3069 3068 3068 3067 3066 3066 3065 3065 3065 3064 3064 3063 3063 3062 3062 3062 3061 3060 3060 3059 3059 3058 3058 3057 3056 3056 3055 3055 3054 3054 3053 3052 3051 3051 3050 3050 3049 3048 3047 3047 3046 3045 3045 3045 3044 3044 3043 3042 3042 3041 3041 3040 3040 3040 3040 3040 3040 3039 3039 3039 3039 3039 3039
3065 3065 3065 3066 3066 3066 3066 3067 3068 3069 3068 3069 3069 3069 3069 3069 3069 3068 3068 3068 3067 3067 3066 3066 3065 3065 3064 3064 3064 3063 3063 3062 3062 3061 3061 3060 3060 3060 3059 3059 3058 3057 3057 3056 3055 3055 3054 3054 3053 3053 3052 3052 3051 3050 3050 3049 3048 3048 3047 3046 3045 3045 3044 3044 3043 3042 3042 3041 3041 3040 3040 3039 3039 3038 3038 3038 3037 3037 3037 3037 3037 3037 3036 3036 3036 3036
3062 3063 3063 3064 3064 3064 3064 3065 3065 3066 3066 3066 3066 3066 3066 3066 3066 3066 3065 3065 3065 3064 3064 3063 3063 3062 3062 3061 3061 3060 3060 3060 3059 3059 3058 3058 3057 3057 3056 3056 3055 3055 3054 3053 3053 3052 3052 3051 3050 3050 3050 3049 3049 3048 3047 3046 3046 3045 3044 3044 3043 3042 3041 3041 3040 3040 3039 3039 3038 3038 3037 3036 3036 3035 3035 3035 3035 3034 3034 3034 3034 3034 3034 3034 3034 3033
3060 3060 3060 3061 3062 3062 3062 3063 3063 3063 3064 3064 3064 3064 3064 3064 3063 3063 3063 3062 3062 3061 3061 3060 3060 3060 3059 3059 3058 3058 3057 3057 3056 3056 3055 3055 3055 3054 3054 3053 3053 3052 3051 3051 3050 3050 3049 3048 3048 3047 3047 3046 3046 3045 3045 3044 3043 3042 3042 3041 3040 3040 3039 3038 3038 3037 3036 3036 3035 3035 3034 3034 3033 3033 3032 3032 3032 3031 3031 3031 3031 3031 3031 3031 3031 3030
3058 3058 3058 3059 3060 3060 3060 3060 3061 3061 3061 3061 3061 3061 3061 3061 3061 3060 3060 3060 3059 3059 3058 3058 3057 3057 3056 3056 3055 3055 3055 3054 3054 3053 3053 3052 3052 3051 3051 3050 3050 3049 3049 3048 3047 3047 3046 3046 3045 3045 3044 3044 3043 3042 3042 3041 3040 3040 3039 3038 3038 3037 3036 3035 3035 3034 3034 3033 3032 3032 3031 3031 3030 3030 3029 3029 3029 3029 3028 3028 3028 3028 3028 3028 3028 3028
3055 3056 3056 3057 3057 3057 3058 3058 3058 3058 3058 3059 3059 3059 3058 3058 3058 3058 3057 3057 3057 3056 3056 3055 3055 3055 3054 3054 3053 3053 3052 3052 3051 3051 3050 3050 3049 3049 3048 3048 3047 3046 3046 3045 3045 3044 3044 3043 3042 3042 3041 3041 3040 3040 3039 3038 3038 3037 3036 3036 3035 3034 3034 3033 3032 3032 3031 3030 3030 3029 3028 3028 3027 3027 3026 3026 3026 3026 3025 3025 3025 3025 3025 3025 3025 3025
3053 3053 3054 3054 3054 3055 3055 3056 3056 3056 3056 3056 3056 3056 3056 3055 3055 3055 3055 3054 3054 3054 3053 3053 3052 3052 3051 3051 3050 3050 3050 3049 3049 3048 3048 3047 3046 3046 3045 3045 3044 3044 3043 3042 3042 3041 3040 3040 3040 3039 3038 3038 3037 3037 3036 3035 3035 3034 3034 3033 3032 3031 3031 3030 3030 3029 3028 3028 3027 3026 3025 3025 3025 3024 3024 3023 3023 3023 3023 3022 3022 3022 3022 3022 3022 3022
3050 3051 3051 3052 3052 3052 3053 3053 3053 3054 3054 3053 3053 3053 3053 3053 3053 3052 3052 3051 3051 3050 3050 3050 3050 3050 3049 3049 3048 3047 3047 3046 3046 3045 3045 3044 3044 3043 3043 3042 3041 3041 3040 3040 3039 3038 3038 3037 3036 3036 3035 3035 3034 3034 3033 3032 3032 3031 3031 3030 3029 3029 3028 3027 3027 3026 3025 3025 3024 3023 3023 3022 3021 3021 3020 3020 3020 3020 3020 3020 3019 3019 3019 3019 3019 3019
3048 3048 3049 3049 3049 3050 3050 3050 3050 3051 3051 3051 3050 3050 3050 3050 3050 3049 3049 3048 3048 3048 3048 3047 3047 3047 3046 3046 3045 3045 3044 3044 3043 3043 3042 3042 3041 3040 3040 3039 3038 3038 3037 3036 3036 3035 3035 3034 3033 3033 3032 3032 3031 3031 3030 3030 3029 3028 3028 3027 3026 3026 3025 3025 3024 3023 3022 3022 3021 3020 3020 3019 3019 3018 3018 3017 3017 3017 3017 3016 3016 3016 3016 3016 3016 3016
3045 3045 3045 3046 3046 3047 3047 3047 3047 3048 3049 3048 3048 3047 3047 3047 3047 3046 3045 3045 3045 3045 3045 3045 3044 3044 3044 3043 3043 3042 3041 3041 3040 3040 3039 3039 3038 3037 3037 3036 3035 3035 3034 3034 3033 3032 3032 3031 3030 3030 3029 3029 3028 3028 3027 3027 3026 3025 3025 3024 3024 3023 3022 3022 3021 3020 3020 3019 3018 3017 3017 3016 3015 3015 3015 3014 3014 3014 3014 3013 3013 3013 3013 3013 3013 3013
3042 3042 3043 3043 3043 3044 3045 3045 3045 3045 3046 3045 3045 3045 3045 3044 3044 3043 3042 3042 3041 3042 3042 3042 3041 3041 3041 3040 3040 3040 3039 3038 3037 3037 3036 3035 3035 3035 3034 3033 3033 3032 3031 3030 3030 3029 3029 3028 3027 3027 3026 3026 3025 3025 3025 3024 3023 3023 3022 3022 3021 3020 3020 3019 3018 3017 3017 3016 3015 3015 3014 3013 3013 3012 3012 3011 3011 3010 3010 3010 3010 3010 3010 3010 3010 3010
3039 3039 3040 3040 3040 3041 3041 3042 3042 3043 3043 3042 3042 3042 3041 3041 3041 3040 3039 3038 3038 3039 3039 3039 3039 3038 3038 3038 3037 3037 3036 3036 3035 3034 3034 3033 3032 3032 3031 3030 3030 3029 3028 3028 3027 3026 3026 3025 3025 3024 3024 3023 3023 3022 3022 3021 3021 3020 3020 3019 3018 3018 3017 3016 3015 3015 3014 3013 3012 3012 3011 3010 3010 3009 3009 3008 3008 3008 3007 3007 3007 3007 3007 3007 3007 3007
3036 3036 3037 3037 3037 3038 3039 3039 3039 3040 3039 3039 3040 3039 3039 3038 3037 3037 3036 3035 3035 3035 3036 3036 3035 3035 3035 3035 3034 3034 3033 3033 3032 3032 3031 3030 3030 3029 3028 3027 3027 3026 3025 3025 3024 3023 3023 3022 3021 3021 3021 3020 3020 3020 3019 3019 3018 3017 3017 3016 3015 3015 3014 3014 3013 3012 3011 3010 3010 3009 3008 3007 3007 3006 3006 3005 3005 3005 3004 3004 3004 3004 3004 3004 3004 3004
3033 3034 3034 3034 3035 3035 3036 3036 3036 3036 3036 3036 3036 3036 3035 3035 3034 3034 3033 3032 3032 3032 3033 3033 3032 3032 3032 3032 3031 3031 3030 3030 3029 3029 3028 3028 3027 3026 3026 3025 3024 3023 3023 3022 3021 3020 3020 3019 3018 3018 3018 3018 3017 3017 3016 3016 3015 3015 3014 3014 3013 3012 3011 3011 3010 3009 3008 3008 3007 3006 3005 3005 3004 3003 3003 3002 3002 3001 3001 3001 3001 3001 3001 3001 3001 3001
3030 3030 3031 3031 3031 3032 3033 3033 3034 3034 3033 3033 3033 3033 3032 3031 3031 3030 3030 3030 3029 3030 3030 3029 3029 3029 3029 3029 3028 3028 3027 3026 3026 3026 3025 3025 3024 3024 3023 3022 3021 3020 3020 3020 3018 3017 3016 3016 3015 3015 3015 3015 3014 3014 3013 3013 3012 3012 3011 3011 3010 3010 3009 3008 3007 3006 3006 3005 3004 3003 3003 3002 3001 3000 3000 3000 2999 2999 2998 2998 2998 2998 2998 2998 2998 2998
3027 3027 3028 3028 3029 3029 3030 3030 3030 3030 3030 3030 3030 3029 3029 3028 3028 3027 3027 3027 3026 3026 3026 3026 3026 3025 3025 3025 3025 3025 3024 3023 3023 3022 3022 3022 3021 3021 3021 3020 3019 3018 3017 3017 3016 3015 3014 3013 3013 3012 3012 3012 3011 3011 3010 3010 3010 3009 3008 3008 3007 3006 3006 3005 3005 3004 3003 3002 3001 3000 3000 2999 2998 2998 2997 2997 2996 2996 2995 2995 2995 2995 2995 2995 2995 2995
3024 3024 3025 3025 3026 3026 3026 3027 3027 3027 3026 3026 3026 3026 3025 3025 3024 3024 3024 3023 3023 3023 3023 3023 3023 3022 3022 3022 3022 3022 3022 3020 3019 3019 3019 3019 3018 3018 3018 3017 3016 3015 3015 3014 3013 3012 3011 3010 3010 3010 3009 3009 3008 3008 3007 3007 3006 3006 3005 3005 3004 3004 3003 3002 3001 3001 3000 2999 2999 2998 2997 2996 2995 2995 2994 2994 2993 2993 2993 2992 2992 2992 2992 2992 2992 2992
3021 3021 3022 3022 3023 3023 3023 3024 3024 3023 3023 3023 3022 3022 3022 3021 3021 3020 3020 3020 3020 3020 3020 3020 3020 3019 3019 3018 3018 3019 3020 3018 3016 3015 3016 3016 3015 3015 3015 3014 3013 3012 3012 3011 3010 3009 3008 3007 3007 3007 3006 3006 3005 3005 3004 3004 3003 3003 3002 3002 3001 3001 3000 2999 2999 2998 2997 2996 2996 2995 2994 2994 2993 2992 2991 2991 2990 2990 2990 2990 2989 2989 2989 2989 2989 2989
3017 3018 3019 3019 3020 3020 3020 3020 3020 3020 3020 3019 3019 3019 3018 3018 3017 3018 3017 3017 3017 3017 3017 3017 3016 3016 3016 3015 3014 3015 3016 3015 3014 3013 3013 3013 3012 3011 3012 3011 3010 3009 3009 3008 3007 3006 3005 3005 3004 3004 3004 3003 3002 3002 3001 3001 3000 3000 3000 2999 2998 2998 2997 2996 2996 2995 2994 2994 2993 2992 2991 2991 2990 2990 2989 2988 2988 2987 2987 2986 2986 2986 2986 2986 2986 2986
3014 3015 3016 3016 3016 3016 3016 3016 3017 3017 3016 3016 3015 3015 3015 3015 3015 3015 3014 3014 3014 3014 3014 3014 3013 3013 3013 3012 3011 3011 3013 3013 3012 3010 3010 3010 3009 3008 3009 3009 3008 3006 3005 3005 3004 3003 3003 3002 3001 3001 3001 3000 3000 2999 2998 2998 2998 2997 2997 2996 2995 2995 2994 2994 2993 2992 2991 2991 2990 2990 2989 2988 2987 2987 2986 2985 2985 2985 2984 2984 2984 2983 2983 2983 2983 2983
3011 3012 3012 3013 3013 3012 3012 3012 3013 3013 3013 3012 3012 3011 3011 3011 3012 3011 3011 3011 3011 3011 3010 3011 3010 3010 3010 3009 3008 3008 3009 3010 3009 3008 3007 3007 3006 3005 3005 3005 3005 3004 3003 3002 3001 3000 3000 2999 2999 2999 2998 2997 2997 2996 2995 2995 2995 2994 2994 2993 2993 2992 2991 2991 2990 2990 2989 2988 2987 2987 2986 2985 2985 2984 2983 2983 2982 2982 2981 2981 2981 2980 2980 2980 2980 2980
3008 3008 3009 3009 3009 3009 3009 3009 3009 3010 3010 3009 3009 3008 3008 3009 3009 3009 3008 3008 3008 3008 3008 3008 3007 3007 3007 3006 3006 3005 3006 3006 3006 3005 3004 3004 3003 3003 3002 3002 3002 3001 3000 2999 2998 2998 2997 2997 2996 2996 2995 2995 2994 2993 2993 2992 2992 2991 2991 2990 2990 2989 2989 2988 2987 2986 2986 2985 2985 2984 2983 2983 2982 2981 2980 2980 2980 2979 2979 2978 2978 2978 2977 2977 2977 2977
3004 3005 3005 3005 3005 3005 3005 3005 3005 3006 3006 3006 3005 3005 3005 3005 3006 3005 3005 3005 3005 3005 3005 3005 3005 3004 3004 3004 3003 3003 3003 3003 3003 3002 3001 3001 3000 3000 3000 3000 2999 2998 2997 2996 2996 2995 2995 2994 2994 2993 2993 2992 2991 2990 2990 2990 2989 2989 2988 2988 2987 2986 2986 2985 2984 2984 2983 2982 2982 2981 2980 2980 2979 2979 2978 2977 2976 2976 2975 2975 2975 2975 2974 2974 2974 2974
3000 3001 3001 3001 3002 3002 3002 3002 3002 3002 3002 3002 3002 3002 3002 3002 3002 3002 3002 3002 3002 3002 3002 3002 3002 3001 3001 3001 3000 3000 3000 3000 3000 2999 2998 2998 2997 2997 2996 2996 2996 2995 2994 2994 2993 2993 2992 2992 2991 2991 2990 2989 2988 2988 2987 2987 2986 2986 2985 2985 2984 2984 2983 2982 2981 2981 2980 2980 2979 2978 2978 2977 2976 2976 2975 2974 2974 2973 2972 2972 2972 2971 2971 2970 2970 2970
2997 2997 2997 2998 2998 2998 2998 2998 2998 2998 2999 2999 2999 2999 2999 2999 2999 2999 2999 2999 2999 2999 2999 2999 2999 2999 2998 2998 2998 2997 2997 2997 2996 2996 2995 2995 2995 2994 2993 2994 2993 2992 2991 2991 2991 2990 2990 2989 2989 2988 2987 2986 2986 2985 2985 2984 2984 2983 2983 2982 2981 2980 2980 2979 2978 2978 2977 2976 2976 2975 2975 2974 2974 2973 2972 2971 2970 2970 2969 2969 2968 2968 2967 2967 2967 2966
2994 2994 2994 2994 2995 2995 2995 2995 2995 2995 2995 2995 2995 2996 2996 2996 2996 2996 2996 2996 2996 2996 2996 2996 2996 2995 2995 2995 2995 2995 2994 2994 2994 2993 2993 2992 2991 2991 2991 2991 2990 2990 2989 2988 2988 2988 2988 2987 2986 2986 2985 2984 2983 2983 2982 2981 2981 2980 2980 2979 2979 2978 2977 2976 2975 2975 2974 2974 2973 2973 2972 2971 2970 2970 2969 2968 2967 2967 2966 2965 2965 2965 2964 2963 2963 2963
2990 2990 2991 2991 2991 2991 2991 2991 2991 2991 2992 2992 2992 2992 2993 2993 2993 2993 2993 2993 2993 2993 2993 2993 2993 2993 2992 2992 2992 2992 2991 2991 2991 2990 2990 2989 2989 2988 2988 2988 2988 2987 2986 2986 2986 2986 2985 2985 2984 2983 2983 2982 2981 2980 2980 2979 2979 2978 2977 2977 2976 2975 2974 2974 2973 2972 2971 2971 2970 2970 2969 2968 2967 2967 2966 2965 2964 2964 2963 2962 2961 2961 2960 2960 2960 2959
2987 2987 2987 2988 2988 2988 2988 2988 2988 2989 2989 2989 2989 2989 2990 2990 2990 2990 2990 2990 2990 2990 2990 2990 2990 2990 2989 2989 2989 2989 2988 2988 2988 2988 2987 2987 2986 2985 2985 2985 2985 2985 2984 2984 2983 2983 2983 2982 2981 2981 2980 2980 2979 2978 2977 2977 2976 2976 2975 2974 2974 2973 2972 2971 2970 2969 2969 2968 2967 2966 2966 2965 2964 2963 2963 2962 2961 2960 2960 2959 2958 2957 2957 2956 2956 2955
2984 2984 2984 2984 2985 2985 2985 2985 2985 2985 2986 2986 2986 2986 2987 2987 2988 2987 2987 2987 2987 2987 2987 2987 2987 2987 2986 2986 2986 2985 2985 2985 2985 2985 2985 2984 2983 2983 2983 2982 2982 2982 2982 2981 2981 2980 2980 2980 2979 2979 2978 2977 2977 2976 2975 2975 2974 2974 2973 2972 2971 2970 2969 2968 2967 2966 2966 2965 2964 2963 2962 2962 2961 2960 2959 2958 2958 2957 2956 2955 2955 2954 2953 2953 2952 2951
2980 2980 2981 2981 2981 2981 2981 2981 2982 2982 2982 2983 2983 2983 2984 2985 2985 2984 2984 2984 2984 2985 2984 2984 2984 2984 2984 2983 2983 2982 2982 2982 2982 2982 2982 2981 2980 2980 2980 2980 2979 2979 2979 2979 2978 2978 2977 2977 2977 2977 2976 2975 2975 2974 2974 2973 2972 2971 2970 2970 2968 2967 2966 2965 2964 2963 2962 2961 2960 2960 2959 2958 2957 2956 2956 2955 2954 2953 2953 2952 2951 2950 2949 2949 2948 2947
2977 2977 2977 2978 2978 2978 2978 2978 2978 2979 2979 2979 2980 2980 2981 2981 2981 2981 2981 2981 2981 2981 2981 2981 2981 2981 2981 2980 2980 2980 2979 2979 2979 2980 2979 2978 2977 2976 2977 2977 2976 2976 2976 2976 2975 2975 2975 2974 2974 2974 2974 2974 2973 2972 2972 2971 2970 2969 2968 2967 2966 2965 2964 2962 2961 2960 2959 2958 2957 2956 2955 2955 2954 2953 2952 2951 2951 2950 2949 2948 2947 2946 2945 2945 2944 2943
2973 2974 2974 2974 2975 2975 2975 2975 2975 2976 2976 2976 2976 2977 2978 2978 2978 2978 2978 2978 2978 2978 2978 2978 2978 2978 2978 2977 2977 2977 2976 2975 2976 2977 2976 2975 2974 2974 2974 2975 2974 2973 2973 2973 2973 2972 2972 2971 2971 2971 2972 2971 2971 2970 2970 2969 2968 2967 2966 2965 2964 2963 2961 2960 2959 2958 2956 2955 2954 2953 2952 2951 2950 2950 2949 2948 2947 2946 2945 2945 2943 2942 2941 2941 2940 2939
2970 2970 2970 2971 2971 2972 2972 2973 2973 2973 2973 2973 2974 2974 2975 2975 2975 2975 2975 2975 2975 2975 2975 2975 2975 2975 2974 2975 2974 2974 2973 2973 2973 2973 2973 2972 2971 2971 2971 2972 2971 2970 2970 2970 2970 2970 2969 2969 2969 2969 2969 2969 2968 2968 2967 2966 2965 2965 2963 2962 2961 2960 2959 2958 2957 2955 2954 2953 2952 2951 2950 2949 2948 2947 2946 2945 2944 2943 2942 2941 2940 2939 2938 2937 2936 2935
2967 2967 2967 2968 2968 2969 2969 2970 2970 2970 2970 2970 2971 2971 2971 2972 2972 2972 2972 2972 2972 2972 2972 2972 2971 2971 2971 2971 2971 2971 2970 2970 2970 2970 2970 2970 2969 2968 2969 2969 2969 2968 2968 2967 2967 2967 2967 2966 2966 2966 2966 2965 2965 2965 2965 2964 2962 2961 2960 2960 2958 2957 2956 2955 2954 2953 2951 2950 2950 2948 2947 2946 2945 2944 2943 2942 2941 2940 2939 2938 2937 2935 2934 2933 2932 2931
2963 2964 2964 2965 2965 2965 2966 2966 2967 2967 2967 2968 2968 2968 2968 2969 2969 2969 2970 2970 2970 2969 2969 2969 2969 2969 2969 2968 2968 2968 2967 2967 2967 2967 2967 2966 2966 2966 2965 2965 2965 2965 2965 2964 2964 2964 2964 2964 2963 2963 2963 2962 2962 2962 2961 2960 2959 2958 2957 2956 2955 2954 2952 2951 2950 2949 2948 2947 2946 2945 2944 2943 2942 2941 2940 2940 2939 2937 2936 2935 2934 2932 2931 2929 2928 2927
2960 2960 2961 2961 2962 2962 2962 2963 2963 2964 2964 2965 2965 2965 2965 2965 2965 2966 2966 2966 2967 2967 2967 2966 2966 2966 2966 2966 2965 2965 2965 2965 2964 2964 2964 2964 2964 2963 2963 2962 2962 2962 2962 2961 2961 2961 2961 2961 2960 2960 2960 2960 2959 2958 2958 2957 2956 2955 2954 2953 2952 2951 2949 2948 2947 2946 2945 2944 2943 2942 2941 2940 2939 2938 2937 2936 2935 2934 2933 2932 2930 2929 2927 2926 2924 2923
2957 2957 2958 2958 2959 2959 2959 2960 2960 2960 2961 2961 2962 2962 2962 2962 2962 2962 2963 2963 2964 2964 2964 2964 2964 2964 2963 2963 2963 2963 2962 2962 2961 2961 2961 2961 2961 2960 2960 2960 2959 2960 2959 2959 2958 2958 2958 2958 2957 2957 2957 2956 2956 2955 2954 2953 2953 2952 2950 2950 2949 2947 2946 2945 2944 2943 2941 2940 2940 2939 2937 2936 2936 2935 2934 2933 2932 2931 2930 2928 2927 2925 2924 2922 2920 2919
2953 2954 2954 2955 2955 2955 2956 2956 2957 2957 2958 2958 2959 2959 2959 2959 2959 2959 2959 2960 2960 2960 2961 2961 2961 2960 2960 2960 2960 2960 2959 2959 2959 2958 2958 2958 2958 2958 2957 2957 2956 2956 2956 2956 2955 2955 2955 2955 2954 2954 2953 2953 2952 2952 2951 2950 2949 2948 2947 2946 2945 2944 2942 2941 2940 2939 2938 2937 2936 2935 2934 2933 2932 2931 2930 2930 2929 2927 2926 2925 2923 2922 2920 2918 2917 2915
2950 2950 2950 2951 2951 2952 2952 2953 2954 2954 2955 2955 2955 2955 2955 2955 2955 2956 2956 2957 2957 2957 2957 2958 2958 2958 2957 2957 2957 2957 2956 2956 2956 2955 2955 2955 2955 2955 2955 2954 2954 2954 2954 2953 2953 2952 2952 2952 2951 2951 2950 2950 2949 2948 2947 2947 2945 2944 2943 2942 2941 2940 2939 2938 2936 2935 2935 2934 2933 2932 2931 2930 2929 2928 2927 2926 2925 2924 2922 2921 2920 2918 2916 2915 2913 2912
2946 2947 2947 2947 2948 2949 2949 2950 2950 2951 2951 2951 2951 2952 2952 2952 2953 2953 2954 2954 2954 2954 2954 2955 2955 2955 2955 2955 2954 2954 2954 2953 2953 2953 2952 2952 2952 2952 2952 2952 2951 2951 2950 2950 2950 2950 2949 2949 2948 2948 2947 2946 2945 2945 2944 2943 2942 2941 2940 2939 2937 2936 2936 2935 2933 2932 2931 2930 2929 2928 2927 2926 2925 2924 2923 2922 2921 2920 2918 2917 2915 2914 2913 2911 2910 2908
2943 2943 2943 2944 2944 2945 2946 2946 2947 2947 2947 2948 2948 2949 2949 2950 2950 2950 2951 2951 2951 2951 2951 2951 2951 2951 2951 2951 2951 2951 2951 2950 2950 2950 2950 2949 2949 2949 2949 2949 2949 2948 2948 2947 2947 2947 2946 2946 2945 2944 2944 2943 2942 2941 2941 2940 2939 2938 2936 2935 2934 2933 2932 2931 2930 2929 2927 2926 2925 2924 2923 2922 2921 2920 2920 2918 2917 2916 2915 2913 2912 2910 2909 2908 2906 2905
2939 2939 2939 2940 2941 2942 2942 2943 2943 2943 2944 2945 2945 2946 2947 2947 2948 2948 2948 2948 2948 2948 2949 2949 2949 2949 2948 2948 2949 2948 2948 2948 2947 2947 2947 2946 2946 2946 2946 2945 2945 2945 2945 2945 2944 2944 2943 2943 2942 2941 2940 2940 2939 2938 2937 2937 2936 2935 2933 2931 2930 2929 2929 2928 2927 2925 2924 2922 2921 2921 2920 2919 2918 2917 2916 2915 2914 2912 2911 2910 2909 2907 2905 2904 2903 2901
2935 2935 2936 2936 2937 2938 2939 2939 2940 2940 2941 2942 2943 2943 2944 2944 2945 2945 2945 2945 2945 2945 2946 2946 2946 2946 2946 2945 2945 2946 2946 2945 2945 2945 2944 2944 2943 2943 2943 2943 2942 2942 2942 2942 2941 2940 2940 2940 2939 2938 2937 2936 2935 2935 2934 2933 2932 2931 2930 2928 2927 2926 2925 2924 2923 2922 2920 2919 2918 2917 2915 2915 2914 2913 2912 2911 2910 2909 2907 2906 2905 2904 2902 2901 2899 2898
2931 2931 2932 2933 2934 2934 2935 2936 2936 2937 2939 2939 2940 2940 2941 2941 2942 2942 2942 2942 2942 2943 2943 2943 2943 2943 2943 2943 2943 2943 2943 2942 2942 2942 2941 2941 2940 2940 2940 2940 2939 2939 2939 2939 2938 2938 2937 2936 2936 2935 2934 2933 2932 2931 2931 2930 2929 2927 2926 2925 2923 2922 2921 2920 2919 2918 2917 2915 2914 2913 2912 2910 2910 2909 2908 2907 2906 2905 2904 2903 2901 2900 2899 2898 2896 2895
2927 2928 2929 2930 2930 2931 2932 2933 2934 2935 2936 2936 2937 2937 2938 2938 2939 2939 2939 2939 2940 2940 2940 2940 2940 2940 2940 2940 2941 2940 2940 2940 2940 2939 2939 2938 2938 2937 2937 2937 2936 2936 2936 2936 2935 2935 2934 2933 2932 2931 2931 2930 2929 2928 2927 2926 2925 2924 2923 2921 2920 2919 2918 2917 2915 2914 2913 2912 2910 2909 2908 2907 2906 2905 2904 2903 2902 2901 2900 2899 2898 2897 2896 2895 2893 2892
2924 2925 2926 2927 2928 2929 2930 2930 2931 2932 2933 2933 2934 2934 2935 2935 2935 2936 2936 2936 2937 2937 2937 2937 2938 2938 2938 2938 2938 2938 2938 2937 2937 2937 2936 2935 2935 2935 2934 2934 2934 2933 2933 2933 2932 2931 2931 2930 2929 2928 2927 2926 2925 2925 2924 2923 2921 2920 2919 2918 2917 2916 2915 2913 2912 2911 2909 2908 2907 2905 2904 2903 2902 2901 2900 2899 2898 2898 2897 2896 2895 2894 2893 2891 2890 2889
2921 2922 2923 2924 2925 2926 2927 2928 2929 2929 2930 2930 2931 2931 2932 2932 2933 2933 2933 2934 2934 2934 2934 2935 2935 2935 2935 2935 2936 2936 2935 2935 2934 2934 2933 2933 2932 2931 2931 2931 2930 2930 2930 2929 2929 2928 2927 2927 2926 2925 2924 2923 2922 2921 2920 2920 2918 2917 2916 2915 2914 2913 2911 2910 2909 2907 2906 2905 2903 2902 2900 2900 2898 2897 2896 2895 2895 2894 2894 2893 2892 2891 2890 2889 2887 2886
2919 2920 2920 2921 2923 2923 2924 2925 2926 2926 2927 2928 2928 2929 2929 2930 2930 2930 2930 2931 2931 2931 2932 2932 2932 2933 2933 2933 2933 2933 2933 2932 2932 2931 2931 2930 2930 2929 2928 2928 2927 2927 2926 2926 2925 2925 2924 2923 2922 2922 2921 2920 2919 2918 2917 2916 2915 2914 2912 2911 2910 2909 2908 2907 2905 2904 2902 2901 2900 2898 2897 2896 2895 2894 2893 2892 2891 2891 2891 2890 2889 2888 2887 2885 2884 2883
2916 2917 2918 2919 2920 2920 2921 2922 2923 2924 2924 2925 2925 2926 2926 2927 2927 2927 2928 2928 2928 2929 2929 2930 2930 2930 2931 2931 2930 2930 2930 2930 2929 2929 2928 2928 2927 2926 2926 2925 2925 2924 2924 2923 2922 2921 2921 2920 2919 2918 2918 2917 2916 2915 2914 2913 2912 2910 2909 2908 2907 2906 2904 2903 2901 2900 2899 2897 2896 2895 2894 2893 2892 2891 2890 2889 2888 2888 2888 2887 2886 2885 2884 2883 2881 2880
2913 2914 2915 2916 2917 2918 2918 2919 2920 2921 2921 2922 2923 2923 2923 2924 2924 2925 2925 2925 2926 2926 2927 2927 2928 2928 2928 2928 2928 2928 2928 2927 2927 2926 2926 2925 2924 2924 2923 2922 2922 2921 2920 2920 2919 2919 2918 2917 2916 2915 2915 2914 2913 2911 2910 2909 2908 2907 2906 2905 2903 2902 2901 2899 2898 2897 2895 2894 2893 2892 2891 2890 2889 2888 2887 2886 2885 2885 2885 2884 2884 2883 2881 2880 2878 2877
2910 2911 2912 2913 2914 2915 2916 2917 2918 2918 2919 2919 2920 2920 2921 2921 2922 2922 2923 2923 2924 2924 2925 2925 2925 2925 2926 2926 2925 2925 2925 2925 2924 2924 2923 2922 2921 2921 2920 2919 2919 2918 2918 2917 2916 2915 2915 2914 2913 2912 2912 2911 2910 2909 2907 2906 2905 2904 2902 2901 2900 2899 2897 2896 2895 2893 2892 2891 2890 2890 2889 2888 2886 2885 2885 2884 2883 2882 2882 2882 2881 2880 2879 2877 2876 2874